Hourly Data Report for October 13, 2015

All times are specified in Local Standard Time (LST). Add 1 hour to adjust for Daylight Saving Time where and when it is observed.

PENTICTON A
BRITISH COLUMBIA

49°27'45.000" N
119°36'08.000" W
344.40 m
1126146
71889
YYF

Download Data

Hourly Data (October 2015)
Hourly Data Report for October 13, 2015
Temp Definition
°C
Dew Point Temp Definition
°C
Rel Hum Definition
%
Wind Dir Definition
10's deg

Wind Spd Definition
km/h
Visibility Definition
km
Stn Press Definition
kPa
Hmdx Definition


Wind Chill Definition


Weather Definition


TIME
00:00 Legend Double Dagger 10.4 7.1 80 33 5 24.1 97.87     LegendNANA
01:00 Legend Double Dagger 7.9 6.1 88 36 9 24.1 97.88     Mainly Clear
02:00 Legend Double Dagger 8.0 5.5 84 36 10 24.1 97.86     LegendNANA
03:00 Legend Double Dagger 7.4 5.2 86 36 3 24.1 97.91     LegendNANA
04:00 Legend Double Dagger 8.2 5.7 84 36 7 24.1 97.95     Mostly Cloudy
05:00 Legend Double Dagger 8.6 6.1 84 36 6 24.1 97.98     LegendNANA
06:00 Legend Double Dagger 6.6 4.9 89 36 7 24.1 97.99     LegendNANA
07:00 Legend Double Dagger 7.4 5.4 87 35 9 24.1 98.04     Mainly Clear
08:00 Legend Double Dagger 11.0 7.2 77 33 9 24.1 98.06     LegendNANA
09:00 Legend Double Dagger 12.1 7.2 72 33 9 24.1 98.08     LegendNANA
10:00 Legend Double Dagger 13.4 7.2 66 35 13 24.1 98.06     Mainly Clear
11:00 Legend Double Dagger 14.5 7.4 62 1 14 24.1 98.02     LegendNANA
12:00 Legend Double Dagger 15.2 7.3 59 1 17 24.1 98.00     LegendNANA
13:00 Legend Double Dagger 16.3 7.6 56 36 19 24.1 97.99     Mainly Clear
14:00 Legend Double Dagger 17.0 8.0 55 36 12 24.1 97.97     LegendNANA
15:00 Legend Double Dagger 17.2 8.2 55 1 8 24.1 97.98     LegendNANA
16:00 Legend Double Dagger 16.7 7.4 54 36 16 24.1 97.98     Mainly Clear
17:00 Legend Double Dagger 14.1 7.7 65 0 1 24.1 97.98     LegendNANA
18:00 Legend Double Dagger 9.9 5.3 73 36 14 24.1 98.03     LegendNANA
19:00 Legend Double Dagger 9.4 4.0 69 35 10 24.1 98.10     Mainly Clear
20:00 Legend Double Dagger 7.8 1.7 65 33 6 24.1 98.12     LegendNANA
21:00 Legend Double Dagger 7.4 -0.3 58 32 9 24.1 98.16     LegendNANA
22:00 Legend Double Dagger 8.2 -0.8 53 35 16 24.1 98.18     Mainly Clear
23:00 Legend Double Dagger 7.3 -1.1 55 35 19 24.1 98.21     LegendNANA

Notes on Data Quality.

Legend

  • E = Estimated
  • M = Missing
  • NA = Not Available
  • ‡ = Partner data that is not subject to review by the National Climate Archives
Date modified: